owner,sensor,date,latitude,longitude,vertical_datum,wind_speed,wind_to_direction,wind_speed_of_gust,qcFlag 
DISL,ioos:station:DISL:BSCA:1,2016-03-01T00:00:00Z,30.3288,-87.8293,0.0,3.07,201.8,-9999.0,'1111122,1111122,1111122' 
DISL,ioos:station:DISL:BSCA:1,2016-03-01T00:30:00Z,30.3288,-87.8293,0.0,2.31,213.9,-9999.0,'1111122,1111122,1111122' 
DISL,ioos:station:DISL:BSCA:1,2016-03-01T01:00:00Z,30.3288,-87.8293,0.0,1.91,213.8,-9999.0,'1111122,1111122,1111122' 
DISL,ioos:station:DISL:BSCA:1,2016-03-01T01:30:00Z,30.3288,-87.8293,0.0,2.34,221.5,-9999.0,'1111122,1111122,1111122' 
DISL,ioos:station:DISL:BSCA:1,2016-03-01T02:00:00Z,30.3288,-87.8293,0.0,1.91,208.5,-9999.0,'1111122,1111122,1111122' 
DISL,ioos:station:DISL:BSCA:1,2016-03-01T02:30:00Z,30.3288,-87.8293,0.0,2.09,200.9,-9999.0,'1111122,1111122,1111122' 
DISL,ioos:station:DISL:BSCA:1,2016-03-01T03:00:00Z,30.3288,-87.8293,0.0,2.89,197.2,-9999.0,'1111122,1111122,1111122' 
DISL,ioos:station:DISL:BSCA:1,2016-03-01T03:30:00Z,30.3288,-87.8293,0.0,2.83,205.9,-9999.0,'1111122,1111122,1111122' 
DISL,ioos:station:DISL:BSCA:1,2016-03-01T04:00:00Z,30.3288,-87.8293,0.0,3.06,200.2,-9999.0,'1111122,1111122,1111122' 
DISL,ioos:station:DISL:BSCA:1,2016-03-01T04:30:00Z,30.3288,-87.8293,0.0,2.8,201.4,-9999.0,'1111122,1111122,1111122' 
DISL,ioos:station:DISL:BSCA:1,2016-03-01T05:00:00Z,30.3288,-87.8293,0.0,3.09,192.5,-9999.0,'1111122,1111122,1111122' 
DISL,ioos:station:DISL:BSCA:1,2016-03-01T05:30:00Z,30.3288,-87.8293,0.0,2.73,186.7,-9999.0,'1111122,1111122,1111122' 
DISL,ioos:station:DISL:BSCA:1,2016-03-01T06:00:00Z,30.3288,-87.8293,0.0,2.69,193.6,-9999.0,'1111122,1111122,1111122' 
DISL,ioos:station:DISL:BSCA:1,2016-03-01T06:30:00Z,30.3288,-87.8293,0.0,3.18,186.0,-9999.0,'1111122,1111122,1111122' 
DISL,ioos:station:DISL:BSCA:1,2016-03-01T07:00:00Z,30.3288,-87.8293,0.0,2.38,189.9,-9999.0,'1111122,1111122,1111122' 
DISL,ioos:station:DISL:BSCA:1,2016-03-01T07:30:00Z,30.3288,-87.8293,0.0,2.23,179.9,-9999.0,'1111122,1111122,1111122' 
DISL,ioos:station:DISL:BSCA:1,2016-03-01T08:00:00Z,30.3288,-87.8293,0.0,2.4,179.2,-9999.0,'1111122,1111122,1111122' 
DISL,ioos:station:DISL:BSCA:1,2016-03-01T08:30:00Z,30.3288,-87.8293,0.0,2.27,179.7,-9999.0,'1111122,1111122,1111122' 
DISL,ioos:station:DISL:BSCA:1,2016-03-01T09:00:00Z,30.3288,-87.8293,0.0,1.97,180.8,-9999.0,'1111122,1111122,1111122' 
DISL,ioos:station:DISL:BSCA:1,2016-03-01T09:30:00Z,30.3288,-87.8293,0.0,2.76,156.0,-9999.0,'1111122,1111122,1111122' 
DISL,ioos:station:DISL:BSCA:1,2016-03-01T10:00:00Z,30.3288,-87.8293,0.0,2.5,146.5,-9999.0,'1111122,1111122,1111122' 
DISL,ioos:station:DISL:BSCA:1,2016-03-01T10:30:00Z,30.3288,-87.8293,0.0,2.25,155.1,-9999.0,'1111122,1111122,1111122' 
DISL,ioos:station:DISL:BSCA:1,2016-03-01T11:00:00Z,30.3288,-87.8293,0.0,2.73,151.0,-9999.0,'1111122,1111122,1111122' 
DISL,ioos:station:DISL:BSCA:1,2016-03-01T11:30:00Z,30.3288,-87.8293,0.0,2.21,129.0,-9999.0,'1111122,1111122,1111122' 
DISL,ioos:station:DISL:BSCA:1,2016-03-01T12:00:00Z,30.3288,-87.8293,0.0,2.71,128.5,-9999.0,'1111122,1111122,1111122' 
DISL,ioos:station:DISL:BSCA:1,2016-03-01T12:30:00Z,30.3288,-87.8293,0.0,1.91,113.4,-9999.0,'1111122,1111122,1111122' 
DISL,ioos:station:DISL:BSCA:1,2016-03-01T13:00:00Z,30.3288,-87.8293,0.0,1.72,96.7,-9999.0,'1111122,1111122,1111122' 
DISL,ioos:station:DISL:BSCA:1,2016-03-01T13:30:00Z,30.3288,-87.8293,0.0,2.33,114.0,-9999.0,'1111122,1111122,1111122' 
DISL,ioos:station:DISL:BSCA:1,2016-03-01T14:00:00Z,30.3288,-87.8293,0.0,2.48,126.3,-9999.0,'1111122,1111122,1111122' 
DISL,ioos:station:DISL:BSCA:1,2016-03-01T14:30:00Z,30.3288,-87.8293,0.0,1.97,154.5,-9999.0,'1111122,1111122,1111122' 
DISL,ioos:station:DISL:BSCA:1,2016-03-01T15:00:00Z,30.3288,-87.8293,0.0,2.62,183.9,-9999.0,'1111122,1111122,1111122' 
DISL,ioos:station:DISL:BSCA:1,2016-03-01T15:30:00Z,30.3288,-87.8293,0.0,2.96,196.9,-9999.0,'1111122,1111122,1111122' 
DISL,ioos:station:DISL:BSCA:1,2016-03-01T16:00:00Z,30.3288,-87.8293,0.0,3.13,202.9,-9999.0,'1111122,1111122,1111122' 
DISL,ioos:station:DISL:BSCA:1,2016-03-01T16:30:00Z,30.3288,-87.8293,0.0,3.94,207.0,-9999.0,'1111122,1111122,1111122' 
DISL,ioos:station:DISL:BSCA:1,2016-03-01T17:00:00Z,30.3288,-87.8293,0.0,2.83,219.7,-9999.0,'1111122,1111122,1111122' 
DISL,ioos:station:DISL:BSCA:1,2016-03-01T17:30:00Z,30.3288,-87.8293,0.0,3.49,210.7,-9999.0,'1111122,1111122,1111122' 
DISL,ioos:station:DISL:BSCA:1,2016-03-01T18:00:00Z,30.3288,-87.8293,0.0,3.75,223.6,-9999.0,'1111122,1111122,1111122' 
DISL,ioos:station:DISL:BSCA:1,2016-03-01T18:30:00Z,30.3288,-87.8293,0.0,3.46,220.5,-9999.0,'1111122,1111122,1111122' 
DISL,ioos:station:DISL:BSCA:1,2016-03-01T19:00:00Z,30.3288,-87.8293,0.0,4.06,231.3,-9999.0,'1111122,1111122,1111122' 
DISL,ioos:station:DISL:BSCA:1,2016-03-01T19:30:00Z,30.3288,-87.8293,0.0,2.75,259.9,-9999.0,'1111122,1111122,1111122' 
DISL,ioos:station:DISL:BSCA:1,2016-03-01T20:00:00Z,30.3288,-87.8293,0.0,3.9,257.5,-9999.0,'1111122,1111122,1111122' 
DISL,ioos:station:DISL:BSCA:1,2016-03-01T20:30:00Z,30.3288,-87.8293,0.0,3.78,262.6,-9999.0,'1111122,1111122,1111122' 
DISL,ioos:station:DISL:BSCA:1,2016-03-01T21:00:00Z,30.3288,-87.8293,0.0,3.67,257.9,-9999.0,'1111122,1111122,1111122' 
DISL,ioos:station:DISL:BSCA:1,2016-03-01T21:30:00Z,30.3288,-87.8293,0.0,3.3,245.2,-9999.0,'1111122,1111122,1111122' 
DISL,ioos:station:DISL:BSCA:1,2016-03-01T22:00:00Z,30.3288,-87.8293,0.0,5.08,206.2,-9999.0,'1111122,1111122,1111122' 
DISL,ioos:station:DISL:BSCA:1,2016-03-01T22:30:00Z,30.3288,-87.8293,0.0,4.46,211.8,-9999.0,'1111122,1111122,1111122' 
DISL,ioos:station:DISL:BSCA:1,2016-03-01T23:00:00Z,30.3288,-87.8293,0.0,4.4,209.6,-9999.0,'1111122,1111122,1111122' 
DISL,ioos:station:DISL:BSCA:1,2016-03-01T23:30:00Z,30.3288,-87.8293,0.0,4.61,214.4,-9999.0,'1111122,1111122,1111122' 
DISL,ioos:station:DISL:BSCA:1,2016-03-02T00:00:00Z,30.3288,-87.8293,0.0,4.24,227.2,-9999.0,'1111122,1111122,1111122' 
DISL,ioos:station:DISL:BSCA:1,2016-03-02T00:30:00Z,30.3288,-87.8293,0.0,4.6,223.7,-9999.0,'1111122,1111122,1111122' 
DISL,ioos:station:DISL:BSCA:1,2016-03-02T01:00:00Z,30.3288,-87.8293,0.0,5.74,206.8,-9999.0,'1111122,1111122,1111122' 
DISL,ioos:station:DISL:BSCA:1,2016-03-02T01:30:00Z,30.3288,-87.8293,0.0,5.73,210.6,-9999.0,'1111122,1111122,1111122' 
DISL,ioos:station:DISL:BSCA:1,2016-03-02T02:00:00Z,30.3288,-87.8293,0.0,7.2,215.8,-9999.0,'1111122,1111122,1111122' 
DISL,ioos:station:DISL:BSCA:1,2016-03-02T02:30:00Z,30.3288,-87.8293,0.0,6.62,233.6,-9999.0,'1111122,1111122,1111122' 
DISL,ioos:station:DISL:BSCA:1,2016-03-02T03:00:00Z,30.3288,-87.8293,0.0,6.92,227.4,-9999.0,'1111122,1111122,1111122' 
DISL,ioos:station:DISL:BSCA:1,2016-03-02T03:30:00Z,30.3288,-87.8293,0.0,7.87,230.1,-9999.0,'1111122,1111122,1111122' 
DISL,ioos:station:DISL:BSCA:1,2016-03-02T04:00:00Z,30.3288,-87.8293,0.0,8.33,223.1,-9999.0,'1111122,1111122,1111122' 
DISL,ioos:station:DISL:BSCA:1,2016-03-02T04:30:00Z,30.3288,-87.8293,0.0,8.47,242.4,-9999.0,'1111122,1111122,1111122' 
DISL,ioos:station:DISL:BSCA:1,2016-03-02T05:00:00Z,30.3288,-87.8293,0.0,9.58,254.6,-9999.0,'1111122,1111122,1111122' 
DISL,ioos:station:DISL:BSCA:1,2016-03-02T05:30:00Z,30.3288,-87.8293,0.0,10.25,268.9,-9999.0,'1111122,1111122,1111122' 
DISL,ioos:station:DISL:BSCA:1,2016-03-02T06:00:00Z,30.3288,-87.8293,0.0,8.42,279.5,-9999.0,'1111122,1111122,1111122' 
DISL,ioos:station:DISL:BSCA:1,2016-03-02T06:30:00Z,30.3288,-87.8293,0.0,5.76,291.5,-9999.0,'1111122,1111122,1111122' 
DISL,ioos:station:DISL:BSCA:1,2016-03-02T07:00:00Z,30.3288,-87.8293,0.0,5.8,290.1,-9999.0,'1111122,1111122,1111122' 
DISL,ioos:station:DISL:BSCA:1,2016-03-02T07:30:00Z,30.3288,-87.8293,0.0,10.41,358.0,-9999.0,'1111122,1111122,1111122' 
DISL,ioos:station:DISL:BSCA:1,2016-03-02T08:00:00Z,30.3288,-87.8293,0.0,8.33,5.225,-9999.0,'1111122,1111122,1111122' 
DISL,ioos:station:DISL:BSCA:1,2016-03-02T08:30:00Z,30.3288,-87.8293,0.0,10.14,19.47,-9999.0,'1111122,1111122,1111122' 
DISL,ioos:station:DISL:BSCA:1,2016-03-02T09:00:00Z,30.3288,-87.8293,0.0,7.88,19.19,-9999.0,'1111122,1111122,1111122' 
DISL,ioos:station:DISL:BSCA:1,2016-03-02T09:30:00Z,30.3288,-87.8293,0.0,7.46,24.59,-9999.0,'1111122,1111122,1111122' 
DISL,ioos:station:DISL:BSCA:1,2016-03-02T10:00:00Z,30.3288,-87.8293,0.0,6.19,21.41,-9999.0,'1111122,1111122,1111122' 
DISL,ioos:station:DISL:BSCA:1,2016-03-02T10:30:00Z,30.3288,-87.8293,0.0,6.62,20.97,-9999.0,'1111122,1111122,1111122' 
DISL,ioos:station:DISL:BSCA:1,2016-03-02T11:00:00Z,30.3288,-87.8293,0.0,6.39,20.46,-9999.0,'1111122,1111122,1111122' 
DISL,ioos:station:DISL:BSCA:1,2016-03-02T11:30:00Z,30.3288,-87.8293,0.0,5.46,22.74,-9999.0,'1111122,1111122,1111122' 
DISL,ioos:station:DISL:BSCA:1,2016-03-02T12:00:00Z,30.3288,-87.8293,0.0,6.73,22.4,-9999.0,'1111122,1111122,1111122' 
DISL,ioos:station:DISL:BSCA:1,2016-03-02T12:30:00Z,30.3288,-87.8293,0.0,6.31,26.19,-9999.0,'1111122,1111122,1111122' 
DISL,ioos:station:DISL:BSCA:1,2016-03-02T13:00:00Z,30.3288,-87.8293,0.0,4.12,28.25,-9999.0,'1111122,1111122,1111122' 
DISL,ioos:station:DISL:BSCA:1,2016-03-02T13:30:00Z,30.3288,-87.8293,0.0,5.28,35.03,-9999.0,'1111122,1111122,1111122' 
DISL,ioos:station:DISL:BSCA:1,2016-03-02T14:00:00Z,30.3288,-87.8293,0.0,5.82,34.68,-9999.0,'1111122,1111122,1111122' 
DISL,ioos:station:DISL:BSCA:1,2016-03-02T14:30:00Z,30.3288,-87.8293,0.0,7.13,32.32,-9999.0,'1111122,1111122,1111122' 
DISL,ioos:station:DISL:BSCA:1,2016-03-02T15:00:00Z,30.3288,-87.8293,0.0,6.89,15.6,-9999.0,'1111122,1111122,1111122' 
DISL,ioos:station:DISL:BSCA:1,2016-03-02T15:30:00Z,30.3288,-87.8293,0.0,5.41,38.12,-9999.0,'1111122,1111122,1111122' 
DISL,ioos:station:DISL:BSCA:1,2016-03-02T16:00:00Z,30.3288,-87.8293,0.0,5.01,24.97,-9999.0,'1111122,1111122,1111122' 
DISL,ioos:station:DISL:BSCA:1,2016-03-02T16:30:00Z,30.3288,-87.8293,0.0,4.51,353.7,-9999.0,'1111122,1111122,1111122' 
DISL,ioos:station:DISL:BSCA:1,2016-03-02T17:00:00Z,30.3288,-87.8293,0.0,4.63,336.6,-9999.0,'1111122,1111122,1111122' 
DISL,ioos:station:DISL:BSCA:1,2016-03-02T17:30:00Z,30.3288,-87.8293,0.0,4.37,333.3,-9999.0,'1111122,1111122,1111122' 
DISL,ioos:station:DISL:BSCA:1,2016-03-02T18:00:00Z,30.3288,-87.8293,0.0,7.1,317.7,-9999.0,'1111122,1111122,1111122' 
DISL,ioos:station:DISL:BSCA:1,2016-03-02T18:30:00Z,30.3288,-87.8293,0.0,7.34,308.4,-9999.0,'1111122,1111122,1111122' 
DISL,ioos:station:DISL:BSCA:1,2016-03-02T19:00:00Z,30.3288,-87.8293,0.0,7.21,304.1,-9999.0,'1111122,1111122,1111122' 
DISL,ioos:station:DISL:BSCA:1,2016-03-02T19:30:00Z,30.3288,-87.8293,0.0,8.09,313.4,-9999.0,'1111122,1111122,1111122' 
DISL,ioos:station:DISL:BSCA:1,2016-03-02T20:00:00Z,30.3288,-87.8293,0.0,7.39,313.0,-9999.0,'1111122,1111122,1111122' 
DISL,ioos:station:DISL:BSCA:1,2016-03-02T20:30:00Z,30.3288,-87.8293,0.0,8.2,319.1,-9999.0,'1111122,1111122,1111122' 
DISL,ioos:station:DISL:BSCA:1,2016-03-02T21:00:00Z,30.3288,-87.8293,0.0,7.08,318.3,-9999.0,'1111122,1111122,1111122' 
DISL,ioos:station:DISL:BSCA:1,2016-03-02T21:30:00Z,30.3288,-87.8293,0.0,6.76,339.6,-9999.0,'1111122,1111122,1111122' 
DISL,ioos:station:DISL:BSCA:1,2016-03-02T22:00:00Z,30.3288,-87.8293,0.0,6.22,336.4,-9999.0,'1111122,1111122,1111122' 
DISL,ioos:station:DISL:BSCA:1,2016-03-02T22:30:00Z,30.3288,-87.8293,0.0,5.63,340.7,-9999.0,'1111122,1111122,1111122' 
DISL,ioos:station:DISL:BSCA:1,2016-03-02T23:00:00Z,30.3288,-87.8293,0.0,5.07,329.8,-9999.0,'1111122,1111122,1111122' 
DISL,ioos:station:DISL:BSCA:1,2016-03-02T23:30:00Z,30.3288,-87.8293,0.0,4.51,331.6,-9999.0,'1111122,1111122,1111122' 
DISL,ioos:station:DISL:BSCA:1,2016-03-03T00:00:00Z,30.3288,-87.8293,0.0,5.31,354.0,-9999.0,'1111122,1111122,1111122' 
DISL,ioos:station:DISL:BSCA:1,2016-03-03T00:30:00Z,30.3288,-87.8293,0.0,4.91,354.8,-9999.0,'1111122,1111122,1111122' 
DISL,ioos:station:DISL:BSCA:1,2016-03-03T01:00:00Z,30.3288,-87.8293,0.0,4.32,8.96,-9999.0,'1111122,1111122,1111122' 
DISL,ioos:station:DISL:BSCA:1,2016-03-03T01:30:00Z,30.3288,-87.8293,0.0,3.66,19.51,-9999.0,'1111122,1111122,1111122' 
DISL,ioos:station:DISL:BSCA:1,2016-03-03T02:00:00Z,30.3288,-87.8293,0.0,2.84,29.23,-9999.0,'1111122,1111122,1111122' 
DISL,ioos:station:DISL:BSCA:1,2016-03-03T02:30:00Z,30.3288,-87.8293,0.0,2.35,30.6,-9999.0,'1111122,1111122,1111122' 
DISL,ioos:station:DISL:BSCA:1,2016-03-03T03:00:00Z,30.3288,-87.8293,0.0,2.54,66.03,-9999.0,'1111122,1111122,1111122' 
DISL,ioos:station:DISL:BSCA:1,2016-03-03T03:30:00Z,30.3288,-87.8293,0.0,1.85,55.35,-9999.0,'1111122,1111122,1111122' 
DISL,ioos:station:DISL:BSCA:1,2016-03-03T04:00:00Z,30.3288,-87.8293,0.0,1.79,70.38,-9999.0,'1111122,1111122,1111122' 
DISL,ioos:station:DISL:BSCA:1,2016-03-03T04:30:00Z,30.3288,-87.8293,0.0,3.12,81.2,-9999.0,'1111122,1111122,1111122' 
DISL,ioos:station:DISL:BSCA:1,2016-03-03T05:00:00Z,30.3288,-87.8293,0.0,3.01,74.07,-9999.0,'1111122,1111122,1111122' 
DISL,ioos:station:DISL:BSCA:1,2016-03-03T05:30:00Z,30.3288,-87.8293,0.0,3.79,96.0,-9999.0,'1111122,1111122,1111122' 
DISL,ioos:station:DISL:BSCA:1,2016-03-03T06:00:00Z,30.3288,-87.8293,0.0,3.07,104.6,-9999.0,'1111122,1111122,1111122' 
DISL,ioos:station:DISL:BSCA:1,2016-03-03T06:30:00Z,30.3288,-87.8293,0.0,2.88,93.1,-9999.0,'1111122,1111122,1111122' 
DISL,ioos:station:DISL:BSCA:1,2016-03-03T07:00:00Z,30.3288,-87.8293,0.0,3.31,81.7,-9999.0,'1111122,1111122,1111122' 
DISL,ioos:station:DISL:BSCA:1,2016-03-03T07:30:00Z,30.3288,-87.8293,0.0,3.19,75.5,-9999.0,'1111122,1111122,1111122' 
DISL,ioos:station:DISL:BSCA:1,2016-03-03T08:00:00Z,30.3288,-87.8293,0.0,3.71,80.5,-9999.0,'1111122,1111122,1111122' 
DISL,ioos:station:DISL:BSCA:1,2016-03-03T08:30:00Z,30.3288,-87.8293,0.0,4.23,75.78,-9999.0,'1111122,1111122,1111122' 
DISL,ioos:station:DISL:BSCA:1,2016-03-03T09:00:00Z,30.3288,-87.8293,0.0,4.48,86.1,-9999.0,'1111122,1111122,1111122' 
DISL,ioos:station:DISL:BSCA:1,2016-03-03T09:30:00Z,30.3288,-87.8293,0.0,4.84,83.3,-9999.0,'1111122,1111122,1111122' 
DISL,ioos:station:DISL:BSCA:1,2016-03-03T10:00:00Z,30.3288,-87.8293,0.0,5.32,84.8,-9999.0,'1111122,1111122,1111122' 
DISL,ioos:station:DISL:BSCA:1,2016-03-03T10:30:00Z,30.3288,-87.8293,0.0,4.72,88.8,-9999.0,'1111122,1111122,1111122' 
DISL,ioos:station:DISL:BSCA:1,2016-03-03T11:00:00Z,30.3288,-87.8293,0.0,4.14,102.4,-9999.0,'1111122,1111122,1111122' 
DISL,ioos:station:DISL:BSCA:1,2016-03-03T11:30:00Z,30.3288,-87.8293,0.0,2.59,86.7,-9999.0,'1111122,1111122,1111122' 
DISL,ioos:station:DISL:BSCA:1,2016-03-03T12:00:00Z,30.3288,-87.8293,0.0,2.88,65.77,-9999.0,'1111122,1111122,1111122' 
DISL,ioos:station:DISL:BSCA:1,2016-03-03T12:30:00Z,30.3288,-87.8293,0.0,2.44,79.74,-9999.0,'1111122,1111122,1111122' 
DISL,ioos:station:DISL:BSCA:1,2016-03-03T13:00:00Z,30.3288,-87.8293,0.0,2.27,92.6,-9999.0,'1111122,1111122,1111122' 
DISL,ioos:station:DISL:BSCA:1,2016-03-03T13:30:00Z,30.3288,-87.8293,0.0,4.6,144.0,-9999.0,'1111122,1111122,1111122' 
DISL,ioos:station:DISL:BSCA:1,2016-03-03T14:00:00Z,30.3288,-87.8293,0.0,7.49,151.7,-9999.0,'1111122,1111122,1111122' 
DISL,ioos:station:DISL:BSCA:1,2016-03-03T14:30:00Z,30.3288,-87.8293,0.0,7.26,154.2,-9999.0,'1111122,1111122,1111122' 
DISL,ioos:station:DISL:BSCA:1,2016-03-03T15:00:00Z,30.3288,-87.8293,0.0,5.71,152.9,-9999.0,'1111122,1111122,1111122' 
DISL,ioos:station:DISL:BSCA:1,2016-03-03T15:30:00Z,30.3288,-87.8293,0.0,2.76,134.4,-9999.0,'1111122,1111122,1111122' 
DISL,ioos:station:DISL:BSCA:1,2016-03-03T16:00:00Z,30.3288,-87.8293,0.0,1.14,347.3,-9999.0,'1111122,1111122,1111122' 
DISL,ioos:station:DISL:BSCA:1,2016-03-03T16:30:00Z,30.3288,-87.8293,0.0,1.17,143.4,-9999.0,'1111122,1111122,1111122' 
DISL,ioos:station:DISL:BSCA:1,2016-03-03T17:00:00Z,30.3288,-87.8293,0.0,3.22,164.0,-9999.0,'1111122,1111122,1111122' 
DISL,ioos:station:DISL:BSCA:1,2016-03-03T17:30:00Z,30.3288,-87.8293,0.0,4.42,174.6,-9999.0,'1111122,1111122,1111122' 
DISL,ioos:station:DISL:BSCA:1,2016-03-03T18:00:00Z,30.3288,-87.8293,0.0,3.81,159.3,-9999.0,'1111122,1111122,1111122' 
DISL,ioos:station:DISL:BSCA:1,2016-03-03T18:30:00Z,30.3288,-87.8293,0.0,3.35,152.9,-9999.0,'1111122,1111122,1111122' 
DISL,ioos:station:DISL:BSCA:1,2016-03-03T19:00:00Z,30.3288,-87.8293,0.0,5.27,170.7,-9999.0,'1111122,1111122,1111122' 
DISL,ioos:station:DISL:BSCA:1,2016-03-03T19:30:00Z,30.3288,-87.8293,0.0,4.73,178.2,-9999.0,'1111122,1111122,1111122' 
DISL,ioos:station:DISL:BSCA:1,2016-03-03T20:00:00Z,30.3288,-87.8293,0.0,6.96,175.6,-9999.0,'1111122,1111122,1111122' 
DISL,ioos:station:DISL:BSCA:1,2016-03-03T20:30:00Z,30.3288,-87.8293,0.0,5.65,183.0,-9999.0,'1111122,1111122,1111122' 
DISL,ioos:station:DISL:BSCA:1,2016-03-03T21:00:00Z,30.3288,-87.8293,0.0,7.25,191.8,-9999.0,'1111122,1111122,1111122' 
DISL,ioos:station:DISL:BSCA:1,2016-03-03T21:30:00Z,30.3288,-87.8293,0.0,7.08,190.0,-9999.0,'1111122,1111122,1111122' 
DISL,ioos:station:DISL:BSCA:1,2016-03-03T22:00:00Z,30.3288,-87.8293,0.0,7.35,201.3,-9999.0,'1111122,1111122,1111122' 
DISL,ioos:station:DISL:BSCA:1,2016-03-03T22:30:00Z,30.3288,-87.8293,0.0,8.68,206.5,-9999.0,'1111122,1111122,1111122' 
DISL,ioos:station:DISL:BSCA:1,2016-03-03T23:00:00Z,30.3288,-87.8293,0.0,8.8,212.7,-9999.0,'1111122,1111122,1111122' 
DISL,ioos:station:DISL:BSCA:1,2016-03-03T23:30:00Z,30.3288,-87.8293,0.0,9.22,222.9,-9999.0,'1111122,1111122,1111122' 
DISL,ioos:station:DISL:BSCA:1,2016-03-04T00:00:00Z,30.3288,-87.8293,0.0,10.38,228.6,-9999.0,'1111122,1111122,1111122' 
DISL,ioos:station:DISL:BSCA:1,2016-03-04T00:30:00Z,30.3288,-87.8293,0.0,11.18,233.0,-9999.0,'1111122,1111122,1111122' 
DISL,ioos:station:DISL:BSCA:1,2016-03-04T01:00:00Z,30.3288,-87.8293,0.0,10.71,244.6,-9999.0,'1111122,1111122,1111122' 
DISL,ioos:station:DISL:BSCA:1,2016-03-04T01:30:00Z,30.3288,-87.8293,0.0,9.72,254.3,-9999.0,'1111122,1111122,1111122' 
DISL,ioos:station:DISL:BSCA:1,2016-03-04T02:00:00Z,30.3288,-87.8293,0.0,6.87,278.4,-9999.0,'1111122,1111122,1111122' 
DISL,ioos:station:DISL:BSCA:1,2016-03-04T02:30:00Z,30.3288,-87.8293,0.0,7.85,261.3,-9999.0,'1111122,1111122,1111122' 
DISL,ioos:station:DISL:BSCA:1,2016-03-04T03:00:00Z,30.3288,-87.8293,0.0,12.13,346.2,-9999.0,'1111122,1111122,1111122' 
DISL,ioos:station:DISL:BSCA:1,2016-03-04T03:30:00Z,30.3288,-87.8293,0.0,6.63,8.87,-9999.0,'1111122,1111122,1111122' 
DISL,ioos:station:DISL:BSCA:1,2016-03-04T04:00:00Z,30.3288,-87.8293,0.0,2.54,36.94,-9999.0,'1111122,1111122,1111122' 
DISL,ioos:station:DISL:BSCA:1,2016-03-04T04:30:00Z,30.3288,-87.8293,0.0,7.38,346.0,-9999.0,'1111122,1111122,1111122' 
DISL,ioos:station:DISL:BSCA:1,2016-03-04T05:00:00Z,30.3288,-87.8293,0.0,6.27,13.27,-9999.0,'1111122,1111122,1111122' 
DISL,ioos:station:DISL:BSCA:1,2016-03-04T05:30:00Z,30.3288,-87.8293,0.0,6.51,1.223,-9999.0,'1111122,1111122,1111122' 
DISL,ioos:station:DISL:BSCA:1,2016-03-04T06:00:00Z,30.3288,-87.8293,0.0,5.66,9.36,-9999.0,'1111122,1111122,1111122' 
DISL,ioos:station:DISL:BSCA:1,2016-03-04T06:30:00Z,30.3288,-87.8293,0.0,5.26,6.48,-9999.0,'1111122,1111122,1111122' 
DISL,ioos:station:DISL:BSCA:1,2016-03-04T07:00:00Z,30.3288,-87.8293,0.0,4.78,5.643,-9999.0,'1111122,1111122,1111122' 
DISL,ioos:station:DISL:BSCA:1,2016-03-04T07:30:00Z,30.3288,-87.8293,0.0,4.32,8.42,-9999.0,'1111122,1111122,1111122' 
DISL,ioos:station:DISL:BSCA:1,2016-03-04T08:00:00Z,30.3288,-87.8293,0.0,4.32,359.0,-9999.0,'1111122,1111122,1111122' 
DISL,ioos:station:DISL:BSCA:1,2016-03-04T08:30:00Z,30.3288,-87.8293,0.0,4.71,10.62,-9999.0,'1111122,1111122,1111122' 
DISL,ioos:station:DISL:BSCA:1,2016-03-04T09:00:00Z,30.3288,-87.8293,0.0,5.32,7.518,-9999.0,'1111122,1111122,1111122' 
DISL,ioos:station:DISL:BSCA:1,2016-03-04T09:30:00Z,30.3288,-87.8293,0.0,4.66,352.9,-9999.0,'1111122,1111122,1111122' 
DISL,ioos:station:DISL:BSCA:1,2016-03-04T10:00:00Z,30.3288,-87.8293,0.0,4.86,353.7,-9999.0,'1111122,1111122,1111122' 
DISL,ioos:station:DISL:BSCA:1,2016-03-04T10:30:00Z,30.3288,-87.8293,0.0,4.93,5.26,-9999.0,'1111122,1111122,1111122' 
DISL,ioos:station:DISL:BSCA:1,2016-03-04T11:00:00Z,30.3288,-87.8293,0.0,6.39,9.05,-9999.0,'1111122,1111122,1111122' 
DISL,ioos:station:DISL:BSCA:1,2016-03-04T11:30:00Z,30.3288,-87.8293,0.0,4.78,17.34,-9999.0,'1111122,1111122,1111122' 
DISL,ioos:station:DISL:BSCA:1,2016-03-04T12:00:00Z,30.3288,-87.8293,0.0,5.07,18.03,-9999.0,'1111122,1111122,1111122' 
DISL,ioos:station:DISL:BSCA:1,2016-03-04T12:30:00Z,30.3288,-87.8293,0.0,4.71,22.53,-9999.0,'1111122,1111122,1111122' 
DISL,ioos:station:DISL:BSCA:1,2016-03-04T13:00:00Z,30.3288,-87.8293,0.0,4.62,23.37,-9999.0,'1111122,1111122,1111122' 
DISL,ioos:station:DISL:BSCA:1,2016-03-04T13:30:00Z,30.3288,-87.8293,0.0,3.85,23.23,-9999.0,'1111122,1111122,1111122' 
DISL,ioos:station:DISL:BSCA:1,2016-03-04T14:00:00Z,30.3288,-87.8293,0.0,6.43,9.07,-9999.0,'1111122,1111122,1111122' 
DISL,ioos:station:DISL:BSCA:1,2016-03-04T14:30:00Z,30.3288,-87.8293,0.0,6.65,21.35,-9999.0,'1111122,1111122,1111122' 
DISL,ioos:station:DISL:BSCA:1,2016-03-04T15:00:00Z,30.3288,-87.8293,0.0,6.99,18.32,-9999.0,'1111122,1111122,1111122' 
DISL,ioos:station:DISL:BSCA:1,2016-03-04T15:30:00Z,30.3288,-87.8293,0.0,5.41,26.17,-9999.0,'1111122,1111122,1111122' 
DISL,ioos:station:DISL:BSCA:1,2016-03-04T16:00:00Z,30.3288,-87.8293,0.0,5.04,23.04,-9999.0,'1111122,1111122,1111122' 
DISL,ioos:station:DISL:BSCA:1,2016-03-04T16:30:00Z,30.3288,-87.8293,0.0,4.66,30.0,-9999.0,'1111122,1111122,1111122' 
DISL,ioos:station:DISL:BSCA:1,2016-03-04T17:00:00Z,30.3288,-87.8293,0.0,4.22,28.95,-9999.0,'1111122,1111122,1111122' 
DISL,ioos:station:DISL:BSCA:1,2016-03-04T17:30:00Z,30.3288,-87.8293,0.0,3.97,16.05,-9999.0,'1111122,1111122,1111122' 
DISL,ioos:station:DISL:BSCA:1,2016-03-04T18:00:00Z,30.3288,-87.8293,0.0,5.02,342.4,-9999.0,'1111122,1111122,1111122' 
DISL,ioos:station:DISL:BSCA:1,2016-03-04T18:30:00Z,30.3288,-87.8293,0.0,4.47,334.1,-9999.0,'1111122,1111122,1111122' 
DISL,ioos:station:DISL:BSCA:1,2016-03-04T19:00:00Z,30.3288,-87.8293,0.0,6.24,316.7,-9999.0,'1111122,1111122,1111122' 
DISL,ioos:station:DISL:BSCA:1,2016-03-04T19:30:00Z,30.3288,-87.8293,0.0,7.32,307.1,-9999.0,'1111122,1111122,1111122' 
DISL,ioos:station:DISL:BSCA:1,2016-03-04T20:00:00Z,30.3288,-87.8293,0.0,6.61,304.0,-9999.0,'1111122,1111122,1111122' 
DISL,ioos:station:DISL:BSCA:1,2016-03-04T20:30:00Z,30.3288,-87.8293,0.0,8.29,314.1,-9999.0,'1111122,1111122,1111122' 
DISL,ioos:station:DISL:BSCA:1,2016-03-04T21:00:00Z,30.3288,-87.8293,0.0,7.52,314.9,-9999.0,'1111122,1111122,1111122' 
DISL,ioos:station:DISL:BSCA:1,2016-03-04T21:30:00Z,30.3288,-87.8293,0.0,6.39,315.8,-9999.0,'1111122,1111122,1111122' 
DISL,ioos:station:DISL:BSCA:1,2016-03-04T22:00:00Z,30.3288,-87.8293,0.0,6.21,312.8,-9999.0,'1111122,1111122,1111122' 
DISL,ioos:station:DISL:BSCA:1,2016-03-04T22:30:00Z,30.3288,-87.8293,0.0,6.08,321.2,-9999.0,'1111122,1111122,1111122' 
DISL,ioos:station:DISL:BSCA:1,2016-03-04T23:00:00Z,30.3288,-87.8293,0.0,4.9,336.2,-9999.0,'1111122,1111122,1111122' 
DISL,ioos:station:DISL:BSCA:1,2016-03-04T23:30:00Z,30.3288,-87.8293,0.0,4.31,344.8,-9999.0,'1111122,1111122,1111122' 
DISL,ioos:station:DISL:BSCA:1,2016-03-05T00:00:00Z,30.3288,-87.8293,0.0,3.73,3.752,-9999.0,'1111122,1111122,1111122' 
DISL,ioos:station:DISL:BSCA:1,2016-03-05T00:30:00Z,30.3288,-87.8293,0.0,3.41,23.56,-9999.0,'1111122,1111122,1111122' 
DISL,ioos:station:DISL:BSCA:1,2016-03-05T01:00:00Z,30.3288,-87.8293,0.0,3.87,38.74,-9999.0,'1111122,1111122,1111122' 
DISL,ioos:station:DISL:BSCA:1,2016-03-05T01:30:00Z,30.3288,-87.8293,0.0,3.75,52.84,-9999.0,'1111122,1111122,1111122' 
DISL,ioos:station:DISL:BSCA:1,2016-03-05T02:00:00Z,30.3288,-87.8293,0.0,3.6,59.72,-9999.0,'1111122,1111122,1111122' 
DISL,ioos:station:DISL:BSCA:1,2016-03-05T02:30:00Z,30.3288,-87.8293,0.0,3.69,57.06,-9999.0,'1111122,1111122,1111122' 
DISL,ioos:station:DISL:BSCA:1,2016-03-05T03:00:00Z,30.3288,-87.8293,0.0,3.59,74.15,-9999.0,'1111122,1111122,1111122' 
DISL,ioos:station:DISL:BSCA:1,2016-03-05T03:30:00Z,30.3288,-87.8293,0.0,3.52,57.95,-9999.0,'1111122,1111122,1111122' 
DISL,ioos:station:DISL:BSCA:1,2016-03-05T04:00:00Z,30.3288,-87.8293,0.0,2.92,68.58,-9999.0,'1111122,1111122,1111122' 
DISL,ioos:station:DISL:BSCA:1,2016-03-05T04:30:00Z,30.3288,-87.8293,0.0,5.2,63.03,-9999.0,'1111122,1111122,1111122' 